Location: Hardenberg
(52.5670°N, 6.6170°E)
Time: 07:53:56
(UTC+01:00)

ISS - Visible Passes

Search period start: 20 March 2019 00:00
Search period end: 30 March 2019 00:00
Orbit: 406 x 411 km, 51.6° (Epoch: 20 March)

Date Brightness Start Highest point End Pass type
(mag) Time Alt. Az. Time Alt. Az. Time Alt. Az.
21 Mar -1.2 20:28:52 10° S 20:28:54 10° S 20:28:54 10° S visible
22 Mar -1.5 19:39:44 10° SE 19:40:10 10° SE 19:40:37 10° SE visible
22 Mar -1.3 21:12:57 10° SW 21:13:34 14° SW 21:13:34 14° SW visible
23 Mar -2.7 20:22:17 10° SSW 20:25:08 27° SSE 20:25:14 27° SSE visible
24 Mar -2.1 19:31:51 10° SSW 19:34:16 19° SE 19:36:41 10° E visible
24 Mar -2.9 21:07:08 10° WSW 21:09:28 39° SW 21:09:28 39° SW visible
25 Mar -3.4 20:16:14 10° SW 20:19:23 43° SSE 20:20:47 26° ESE visible
25 Mar -1.3 21:52:30 10° W 21:53:31 18° W 21:53:31 18° W visible
26 Mar -3.9 21:01:27 10° WSW 21:04:43 72° S 21:04:43 72° S visible
27 Mar -3.7 20:10:26 10° WSW 20:13:42 62° SSE 20:15:48 20° E visible
27 Mar -1.9 21:46:53 10° W 21:48:32 27° W 21:48:32 27° W visible
28 Mar -3.9 20:55:48 10° W 20:59:07 77° S 20:59:33 62° ESE visible
29 Mar -3.8 20:04:42 10° W 20:08:01 76° S 20:10:30 16° E visible
29 Mar -2.3 21:41:14 10° W 21:43:14 32° W 21:43:14 32° W visible
